User: anonymous   Login
Location: Unspecified
(0.0000°N, 0.0000°E)
Time: 08:25:49
(UTC+00:00)
Language:

Aussat K2 - Orbit

View from above orbital plane
View from above orbital plane
View from above satellite
View from above satellite

Ground track
Ground track

The orbit data is extracted from the following two-line orbital elements,

1 16275U 85109C   16208.08104829  .00000094  00000-0  00000+0 0  9995
2 16275  15.1197  12.0186 0006156 210.0677 145.4069  0.99942867101966
Epoch (UTC): 26 July 2016 01:56:42
Eccentricity: 0.0006156
inclination: 15.1197°
perigee height: 35852 km
apogee height: 35904 km
right ascension of ascending node: 12.0186°
argument of perigee: 210.0677°
revolutions per day: 0.99942867
mean anomaly at epoch: 145.4069°
orbit number at epoch: 10196

The dashed part of the orbit path shows where the satellite is in the earth's shadow,  

DLR